Date String (YYYY-MM-DD hh:mm:ss) UTC,Instrument flags,Ambient pressure (hPa),Sample flow (lpm),Bypass flow (lpm),Sample temperature (°C),Ambient temperature (°C),ASC tube jacket temperature (°C),LED temperature (°C),Box temperature (°C),Sample RH (%),Span deviation,Mass concentration (μg/m³),Mass concentration (μg/m³),Mass concentration (μg/m³)
DateTimeUTC,F1_M11,P_M11,Q1_M11,Q2_M11,T1_M11,T2_M11,T3_M11,T4_M11,T5_M11,U1_M11,ZSPAN_M11,X0_M11,X2_M11,X1_M11
2022-03-15 13:00:00,,0829.0,5.00,0.00,22.5,21.8,00.0,31.4,24.3,09.6,0000.0,0008.48,0003.12,0002.22
2022-03-15 13:01:00,,0829.0,5.01,0.00,22.5,21.8,00.0,31.4,24.3,09.7,0000.0,0008.45,0003.13,0002.27
2022-03-15 13:02:00,,0829.1,5.00,0.00,22.5,21.8,00.0,31.4,24.3,09.7,0000.0,0008.11,0003.16,0002.32
2022-03-15 13:03:00,,0829.1,5.00,0.00,22.5,21.7,00.0,31.4,24.3,09.7,0000.0,0007.76,0003.17,0002.35
2022-03-15 13:04:00,,0829.1,4.99,0.00,22.4,21.7,00.0,31.4,24.2,09.7,0000.0,0007.58,0003.20,0002.37
2022-03-15 13:05:00,,0829.0,4.99,0.00,22.4,21.7,00.0,31.4,24.2,09.8,0000.0,0007.34,0003.22,0002.42
2022-03-15 13:06:00,,0829.0,5.00,0.00,22.4,21.7,00.0,31.4,24.2,09.8,0000.0,0007.49,0003.26,0002.45
2022-03-15 13:07:00,,0829.0,5.01,0.00,22.4,21.7,00.0,31.4,24.2,09.8,0000.0,0008.21,0003.31,0002.47
2022-03-15 13:08:00,,0829.0,5.00,0.00,22.4,21.7,00.0,31.4,24.2,09.7,0000.0,0008.76,0003.35,0002.52
2022-03-15 13:09:00,,0828.9,5.00,0.00,22.4,21.7,00.0,31.4,24.2,09.6,0000.0,0009.04,0003.40,0002.53
2022-03-15 13:10:00,,0828.9,5.00,0.00,22.5,21.7,00.0,31.4,24.3,09.6,0000.0,0008.64,0003.43,0002.52
2022-03-15 13:11:00,,0828.9,4.98,0.00,22.4,21.7,00.0,31.4,24.3,09.5,0000.0,0008.59,0003.40,0002.52
2022-03-15 13:12:00,,0828.8,5.00,0.00,22.5,21.7,00.0,31.4,24.3,09.4,0000.0,0009.31,0003.41,0002.50
2022-03-15 13:13:00,,0828.9,5.01,0.00,22.4,21.7,00.0,31.4,24.3,09.4,0000.0,0009.81,0003.43,0002.48
2022-03-15 13:14:00,,0828.9,5.00,0.00,22.4,21.6,00.0,31.4,24.2,09.3,0000.0,0010.12,0003.41,0002.47
2022-03-15 13:15:00,,0829.0,5.01,0.00,22.4,21.6,00.0,31.4,24.1,09.4,0000.0,0010.69,0003.41,0002.47
2022-03-15 13:16:00,,0829.0,5.01,0.00,22.3,21.5,00.0,31.4,24.0,09.3,0000.0,0010.60,0003.39,0002.44
2022-03-15 13:17:00,,0829.0,5.00,0.00,22.3,21.5,00.0,31.4,24.0,09.4,0000.0,0010.59,0003.34,0002.40
2022-03-15 13:18:00,,0829.0,4.98,0.00,22.3,21.5,00.0,31.4,24.0,09.5,0000.0,0010.18,0003.31,0002.39
2022-03-15 13:19:00,,0828.9,5.00,0.00,22.3,21.5,00.0,31.3,24.0,09.6,0000.0,0009.68,0003.28,0002.38
2022-03-15 13:20:00,,0829.0,5.00,0.00,22.3,21.5,00.0,31.3,24.0,09.8,0000.0,0009.52,0003.23,0002.38
2022-03-15 13:21:00,,0828.9,5.00,0.00,22.3,21.5,00.0,31.3,24.0,09.7,0000.0,0009.62,0003.24,0002.40
2022-03-15 13:22:00,,0828.9,5.01,0.00,22.3,21.5,00.0,31.3,24.1,09.6,0000.0,0009.42,0003.25,0002.42
2022-03-15 13:23:00,,0829.2,5.00,0.00,22.3,21.6,00.0,31.3,24.1,10.0,0000.0,0008.55,0003.29,0002.44
2022-03-15 13:24:00,,0828.8,5.00,0.00,22.3,21.6,00.0,31.3,24.1,09.8,0000.0,0008.41,0003.30,0002.46
2022-03-15 13:25:00,,0828.8,5.00,0.00,22.3,21.6,00.0,31.3,24.1,09.7,0000.0,0008.08,0003.32,0002.47
2022-03-15 13:26:00,,0829.3,4.99,0.00,22.3,21.6,00.0,31.3,24.1,09.7,0000.0,0007.60,0003.35,0002.48
2022-03-15 13:27:00,,0829.3,5.01,0.00,22.3,21.6,00.0,31.3,24.1,09.8,0000.0,0008.31,0003.40,0002.52
2022-03-15 13:28:00,,0829.3,5.01,0.00,22.3,21.6,00.0,31.3,24.1,09.9,0000.0,0008.29,0003.42,0002.57
2022-03-15 13:29:00,,0828.8,5.00,0.00,22.3,21.6,00.0,31.3,24.1,10.0,0000.0,0008.17,0003.45,0002.59
2022-03-15 13:30:00,,0828.9,5.00,0.00,22.3,21.6,00.0,31.3,24.1,10.0,0000.0,0008.55,0003.48,0002.59
2022-03-15 13:31:00,,0828.9,4.99,0.00,22.3,21.6,00.0,31.3,24.1,10.0,0000.0,0008.47,0003.51,0002.60
2022-03-15 13:32:00,,0829.0,5.00,0.00,22.3,21.6,00.0,31.3,24.2,10.0,0000.0,0008.30,0003.50,0002.60
2022-03-15 13:33:00,,0828.9,5.01,0.00,22.4,21.6,00.0,31.3,24.2,10.5,0000.0,0008.26,0003.49,0002.60
2022-03-15 13:34:00,,0828.9,5.00,0.00,22.4,21.6,00.0,31.3,24.2,10.1,0000.0,0008.48,0003.48,0002.59
2022-03-15 13:35:00,,0828.9,4.99,0.00,22.4,21.7,00.0,31.3,24.2,09.9,0000.0,0008.20,0003.46,0002.58
2022-03-15 13:36:00,,0829.0,5.00,0.00,22.4,21.7,00.0,31.3,24.2,09.8,0000.0,0008.12,0003.43,0002.57
2022-03-15 13:37:00,,0829.0,5.01,0.00,22.4,21.7,00.0,31.3,24.2,09.4,0000.0,0008.01,0003.38,0002.55
2022-03-15 13:38:00,,0828.9,5.01,0.00,22.4,21.7,00.0,31.3,24.2,09.3,0000.0,0007.49,0003.37,0002.51
2022-03-15 13:39:00,,0829.0,4.99,0.00,22.4,21.7,00.0,31.3,24.3,09.4,0000.0,0007.52,0003.35,0002.46
2022-03-15 13:40:00,,0829.0,5.00,0.00,22.4,21.7,00.0,31.3,24.2,09.4,0000.0,0007.49,0003.32,0002.44
2022-03-15 13:41:00,,0829.0,5.00,0.00,22.4,21.7,00.0,31.4,24.2,09.4,0000.0,0006.86,0003.30,0002.41
2022-03-15 13:42:00,,0828.9,5.00,0.00,22.5,21.7,00.0,31.4,24.3,09.5,0000.0,0007.07,0003.29,0002.41
2022-03-15 13:43:00,,0828.9,5.01,0.00,22.5,21.7,00.0,31.4,24.3,09.6,0000.0,0007.80,0003.30,0002.39
2022-03-15 13:44:00,,0828.9,5.00,0.00,22.5,21.7,00.0,31.4,24.2,09.5,0000.0,0008.38,0003.29,0002.38
2022-03-15 13:45:00,,0829.0,4.98,0.00,22.5,21.7,00.0,31.4,24.3,09.4,0000.0,0008.03,0003.27,0002.37
2022-03-15 13:46:00,,0829.0,5.00,0.00,22.5,21.7,00.0,31.4,24.3,09.3,0000.0,0008.08,0003.27,0002.35
2022-03-15 13:47:00,,0829.0,5.00,0.00,22.5,21.8,00.0,31.4,24.3,09.4,0000.0,0008.13,0003.27,0002.33
2022-03-15 13:48:00,,0828.9,5.01,0.00,22.5,21.7,00.0,31.4,24.3,09.5,0000.0,0008.30,0003.28,0002.33
2022-03-15 13:49:00,,0828.9,5.00,0.00,22.5,21.7,00.0,31.4,24.3,09.5,0000.0,0008.18,0003.27,0002.35
2022-03-15 13:50:00,,0829.1,5.00,0.00,22.5,21.7,00.0,31.4,24.3,09.5,0000.0,0008.00,0003.26,0002.36
2022-03-15 13:51:00,,0829.1,5.00,0.00,22.5,21.7,00.0,31.4,24.3,09.6,0000.0,0008.03,0003.28,0002.37
2022-03-15 13:52:00,,0829.3,5.00,0.00,22.5,21.7,00.0,31.4,24.3,09.8,0000.0,0008.21,0003.35,0002.41
2022-03-15 13:53:00,,0829.0,5.00,0.00,22.4,21.7,00.0,31.4,24.2,09.9,0000.0,0008.19,0003.41,0002.43
2022-03-15 13:54:00,,0829.1,5.00,0.00,22.4,21.6,00.0,31.4,24.2,09.9,0000.0,0007.43,0003.40,0002.45
2022-03-15 13:55:00,,0829.0,4.99,0.00,22.4,21.6,00.0,31.4,24.2,09.9,0000.0,0008.10,0003.41,0002.47
2022-03-15 13:56:00,,0828.9,5.00,0.00,22.4,21.6,00.0,31.4,24.1,09.9,0000.0,0008.40,0003.44,0002.49
2022-03-15 13:57:00,,0829.2,5.01,0.00,22.4,21.6,00.0,31.4,24.1,09.9,0000.0,0008.40,0003.44,0002.52
2022-03-15 13:58:00,,0829.0,5.01,0.00,22.4,21.6,00.0,31.4,24.2,10.0,0000.0,0008.61,0003.47,0002.55
2022-03-15 13:59:00,,0829.0,5.00,0.00,22.4,21.7,00.0,31.4,24.2,10.1,0000.0,0008.67,0003.50,0002.57
